When you browse on this site, cookies collect data to enhance your experience and personalize the content and advertising you see.
Visit our Privacy Policy to learn more. By continuing to use the site, you agree to this use of cookies and data.

Météo par heure à Bretyanka

Ce jour, 14 Août, Vendredi

Heure Température Précipitation Vent Pression Humidité
00:00 +12°C° 0 mm 1 m/s 743 mmHg 81%
01:00 +11°C° 0 mm 1 m/s 743 mmHg 82%
02:00 +11°C° 0 mm 1 m/s 743 mmHg 84%
03:00 +11°C° 0 mm 1 m/s 743 mmHg 85%
04:00 +10°C° 0 mm 1 m/s 743 mmHg 86%
05:00 +10°C° 0 mm 1 m/s 743 mmHg 87%
06:00 +12°C° 0 mm 1 m/s 743 mmHg 81%
07:00 +14°C° 0 mm 1 m/s 743 mmHg 75%
08:00 +16°C° 0 mm 1 m/s 743 mmHg 69%
09:00 +18°C° 0 mm 1 m/s 743 mmHg 65%
10:00 +20°C° 0 mm 1 m/s 743 mmHg 61%
11:00 +21°C° 0 mm 1 m/s 743 mmHg 56%
12:00 +22°C° 0 mm 1 m/s 743 mmHg 55%
13:00 +22°C° 0 mm 1 m/s 743 mmHg 54%
14:00 +23°C° 0 mm 1 m/s 743 mmHg 55%
15:00 +23°C° 0.1 mm 1 m/s 743 mmHg 57%
16:00 +23°C° 0.1 mm 1 m/s 742 mmHg 59%
17:00 +22°C° 0.1 mm 1 m/s 742 mmHg 61%
18:00 +21°C° 0.1 mm 1 m/s 742 mmHg 67%
19:00 +18°C° 0.1 mm 2 m/s 742 mmHg 74%
20:00 +16°C° 0.1 mm 2 m/s 742 mmHg 80%
21:00 +16°C° 0 mm 2 m/s 742 mmHg 82%
22:00 +15°C° 0 mm 2 m/s 742 mmHg 83%
23:00 +14°C° 0 mm 2 m/s 742 mmHg 84%

Demain, 15 Août, Samedi

Heure Température Précipitation Vent Pression Humidité
00:00 +14°C° 0 mm 2 m/s 743 mmHg 86%
01:00 +14°C° 0 mm 2 m/s 743 mmHg 88%
02:00 +13°C° 0 mm 2 m/s 743 mmHg 90%
03:00 +13°C° 0 mm 2 m/s 743 mmHg 90%
04:00 +13°C° 0 mm 2 m/s 743 mmHg 90%
05:00 +12°C° 0 mm 2 m/s 743 mmHg 91%
06:00 +14°C° 0 mm 2 m/s 743 mmHg 85%
07:00 +15°C° 0 mm 2 m/s 743 mmHg 79%
08:00 +17°C° 0 mm 2 m/s 743 mmHg 74%
09:00 +19°C° 0 mm 2 m/s 743 mmHg 68%
10:00 +20°C° 0 mm 2 m/s 743 mmHg 62%
11:00 +23°C° 0 mm 2 m/s 744 mmHg 56%
12:00 +23°C° 0 mm 2 m/s 743 mmHg 54%
13:00 +24°C° 0 mm 2 m/s 743 mmHg 53%
14:00 +24°C° 0 mm 2 m/s 743 mmHg 51%
15:00 +24°C° 0 mm 2 m/s 743 mmHg 52%
16:00 +24°C° 0 mm 2 m/s 743 mmHg 53%
17:00 +24°C° 0 mm 1 m/s 742 mmHg 54%
18:00 +22°C° 0 mm 1 m/s 742 mmHg 61%
19:00 +20°C° 0 mm 1 m/s 742 mmHg 67%
20:00 +19°C° 0 mm 1 m/s 742 mmHg 73%
21:00 +18°C° 0 mm 1 m/s 742 mmHg 76%
22:00 +16°C° 0 mm 1 m/s 742 mmHg 78%
23:00 +16°C° 0 mm 1 m/s 743 mmHg 81%

Après-demain, 16 Août, Dimanche

Heure Température Précipitation Vent Pression Humidité
00:00 +15°C° 0 mm 1 m/s 743 mmHg 82%
01:00 +15°C° 0 mm 1 m/s 742 mmHg 82%
02:00 +15°C° 0 mm 1 m/s 742 mmHg 83%
03:00 +14°C° 0 mm 1 m/s 742 mmHg 84%
04:00 +14°C° 0 mm 1 m/s 742 mmHg 86%
05:00 +14°C° 0 mm 2 m/s 742 mmHg 87%
06:00 +15°C° 0 mm 2 m/s 742 mmHg 82%
07:00 +17°C° 0 mm 2 m/s 743 mmHg 77%
08:00 +19°C° 0 mm 2 m/s 743 mmHg 72%
09:00 +20°C° 0 mm 2 m/s 743 mmHg 68%
10:00 +23°C° 0 mm 2 m/s 743 mmHg 64%
11:00 +24°C° 0 mm 2 m/s 743 mmHg 60%
12:00 +25°C° 0 mm 2 m/s 743 mmHg 57%
13:00 +26°C° 0 mm 2 m/s 743 mmHg 55%
14:00 +26°C° 0 mm 2 m/s 743 mmHg 52%
15:00 +26°C° 0 mm 2 m/s 743 mmHg 54%
16:00 +26°C° 0 mm 2 m/s 742 mmHg 55%
17:00 +26°C° 0 mm 2 m/s 742 mmHg 56%
18:00 +24°C° 0 mm 2 m/s 742 mmHg 63%
19:00 +22°C° 0 mm 1 m/s 742 mmHg 69%
20:00 +20°C° 0 mm 1 m/s 742 mmHg 76%
21:00 +19°C° 0 mm 1 m/s 742 mmHg 78%
22:00 +19°C° 0 mm 1 m/s 742 mmHg 80%
23:00 +18°C° 0 mm 1 m/s 742 mmHg 82%

17 Août, Lundi

Heure Température Précipitation Vent Pression Humidité
00:00 +18°C° 0 mm 1 m/s 742 mmHg 83%
01:00 +16°C° 0 mm 1 m/s 742 mmHg 83%
02:00 +16°C° 0 mm 1 m/s 742 mmHg 84%
03:00 +16°C° 0 mm 1 m/s 742 mmHg 85%
04:00 +15°C° 0 mm 1 m/s 742 mmHg 86%
05:00 +15°C° 0 mm 1 m/s 742 mmHg 87%
06:00 +18°C° 0 mm 1 m/s 742 mmHg 81%
07:00 +19°C° 0 mm 1 m/s 742 mmHg 75%
08:00 +21°C° 0 mm 1 m/s 742 mmHg 70%
09:00 +23°C° 0 mm 1 m/s 742 mmHg 65%
10:00 +24°C° 0 mm 1 m/s 742 mmHg 60%
11:00 +26°C° 0 mm 1 m/s 742 mmHg 55%
12:00 +26°C° 0 mm 1 m/s 741 mmHg 53%
13:00 +27°C° 0 mm 1 m/s 741 mmHg 51%
14:00 +27°C° 0 mm 2 m/s 741 mmHg 48%
15:00 +27°C° 0 mm 2 m/s 740 mmHg 50%
16:00 +27°C° 0 mm 2 m/s 740 mmHg 52%
17:00 +26°C° 0 mm 2 m/s 739 mmHg 55%
18:00 +25°C° 0 mm 2 m/s 739 mmHg 60%
19:00 +23°C° 0 mm 2 m/s 739 mmHg 65%
20:00 +21°C° 0 mm 1 m/s 739 mmHg 70%
21:00 +21°C° 0 mm 1 m/s 739 mmHg 70%
22:00 +20°C° 0 mm 1 m/s 739 mmHg 71%
23:00 +20°C° 0 mm 1 m/s 738 mmHg 71%

18 Août, Mardi

Heure Température Précipitation Vent Pression Humidité
00:00 +19°C° 0.2 mm 2 m/s 738 mmHg 74%
01:00 +18°C° 0.2 mm 2 m/s 738 mmHg 77%
02:00 +18°C° 0.2 mm 2 m/s 738 mmHg 79%
03:00 +18°C° 0.3 mm 2 m/s 737 mmHg 82%
04:00 +17°C° 0.3 mm 3 m/s 737 mmHg 85%
05:00 +17°C° 0.3 mm 3 m/s 737 mmHg 88%
06:00 +18°C° 0 mm 3 m/s 737 mmHg 84%
07:00 +19°C° 0 mm 3 m/s 737 mmHg 80%
08:00 +20°C° 0 mm 3 m/s 737 mmHg 76%
09:00 +21°C° 0 mm 3 m/s 737 mmHg 70%
10:00 +22°C° 0 mm 3 m/s 737 mmHg 65%
11:00 +25°C° 0 mm 3 m/s 736 mmHg 59%
12:00 +25°C° 0 mm 2 m/s 736 mmHg 57%
13:00 +26°C° 0 mm 2 m/s 736 mmHg 55%
14:00 +27°C° 0 mm 2 m/s 736 mmHg 52%
15:00 +27°C° 0 mm 2 m/s 736 mmHg 54%
16:00 +27°C° 0 mm 2 m/s 735 mmHg 55%
17:00 +27°C° 0 mm 2 m/s 735 mmHg 56%
18:00 +25°C° 0 mm 2 m/s 735 mmHg 62%
19:00 +23°C° 0 mm 2 m/s 735 mmHg 69%
20:00 +20°C° 0 mm 2 m/s 735 mmHg 75%
21:00 +20°C° 0 mm 2 m/s 735 mmHg 77%
22:00 +19°C° 0 mm 2 m/s 735 mmHg 80%
23:00 +18°C° 0 mm 2 m/s 735 mmHg 82%

19 Août, Mercredi

Heure Température Précipitation Vent Pression Humidité
00:00 +18°C° 0.1 mm 2 m/s 735 mmHg 84%
01:00 +18°C° 0.1 mm 2 m/s 735 mmHg 86%
02:00 +18°C° 0.1 mm 2 m/s 735 mmHg 87%
03:00 +18°C° 0.6 mm 2 m/s 734 mmHg 90%
04:00 +18°C° 0.6 mm 2 m/s 734 mmHg 92%
05:00 +18°C° 0.6 mm 2 m/s 734 mmHg 94%
06:00 +18°C° 0.7 mm 2 m/s 734 mmHg 94%
07:00 +19°C° 0.7 mm 1 m/s 734 mmHg 95%
08:00 +19°C° 0.7 mm 1 m/s 734 mmHg 96%
09:00 +20°C° 0.4 mm 2 m/s 734 mmHg 91%
10:00 +21°C° 0.4 mm 2 m/s 735 mmHg 86%
11:00 +23°C° 0.4 mm 2 m/s 735 mmHg 81%
12:00 +22°C° 0.4 mm 3 m/s 735 mmHg 79%
13:00 +24°C° 0.4 mm 3 m/s 734 mmHg 78%
14:00 +24°C° 0.4 mm 3 m/s 734 mmHg 76%
15:00 +24°C° 0.1 mm 3 m/s 734 mmHg 75%
16:00 +24°C° 0.1 mm 3 m/s 734 mmHg 75%
17:00 +22°C° 0.1 mm 3 m/s 734 mmHg 74%
18:00 +21°C° 0 mm 3 m/s 734 mmHg 81%
19:00 +19°C° 0 mm 2 m/s 734 mmHg 87%
20:00 +18°C° 0 mm 2 m/s 734 mmHg 93%
21:00 +17°C° 0 mm 2 m/s 734 mmHg 94%
22:00 +17°C° 0 mm 2 m/s 734 mmHg 95%
23:00 +16°C° 0 mm 2 m/s 734 mmHg 95%
Voir plus